User: anonymous   Login
Location: Unspecified
(0.0000°N, 0.0000°E)
Time: 18:20:04
(UTC+00:00)
Language:

STARLINK-30957 - Orbit

View from above orbital plane
View from above orbital plane
View from above satellite
View from above satellite

Ground track
Ground track

The orbit is defined by the following mean orbital elements,

1 58453U          26145.50267747 +.00000000 +00000-0 +63115-4 0 00004
2 58453  43.0044 327.6706 0001921 273.0172  87.0460 15.27582697    05
Epoch (UTC): 25 May 2026 12:03:51
Eccentricity: 0.0001921
inclination: 43.0044°
perigee height: 482 km
apogee height: 484 km
right ascension of ascending node: 327.6706°
argument of perigee: 273.0172°
revolutions per day: 15.27582697
mean anomaly at epoch: 87.0460°

The dashed part of the orbit path shows where the satellite is in the earth's shadow,  

DLR